Weather in Streltsy

Russia / Kurgan Oblast     54°58′03″N   67°43′40″E
temp.,
°C
wind,
m/s
gust,
m/s
humid.,
%
clouds,
%
prec.,
mm/h
press.,
hPa
HPBL,
m
12 april, mon
mon1223:000sw4887100 0.0 1038127
02:000sw498232 0.0 1037166
05:000sw4108180 0.0 1036163
08:00+3wsw4107181 0.0 1035238
11:00+7wsw5669100 0.0 1034342
14:00+9wnw4677100 0.0 1034456
17:00+10nw3789100 0.1 1034506
20:00+6nnw3697100 0.8 1036176
13 april, tue
tue1323:00+5nnw3593100 0.8 103798
02:00+4nne3587100 0.0 103878
05:00+3ne34905 0.0 103961
08:00+5ene23810 0.0 1041141
11:00+9nne22560 0.0 1041720
14:00+11wnw22470 0.0 1040972
17:00+12w22470 0.0 1039995
20:00+8wnw22630 0.0 103910
14 april, wed
wed1423:00+7sw22702 0.0 103812
02:00+5sw347920 0.0 103846
05:00+4sw47885 0.0 1037102
08:00+6wsw4777100 0.0 1036228
11:00+10wsw5760100 0.0 1034494
14:00+14wsw6748100 0.0 1032771
17:00+14w575014 0.0 1030818
20:00+10wsw366811 0.0 103083
15 april, thu
thu1523:00+8wsw36735 0.0 102979
02:00+7wsw35755 0.0 102868
05:00+6w34777 0.0 102761
08:00+9wsw367132 0.0 1027178
11:00+14w455836 0.0 1025473
14:00+17w455452 0.0 1023872
17:00+17w45535 0.0 1022980
20:00+13wsw33685 0.0 102131
16 april, fri
fri1623:00+11wsw33695 0.0 102025
02:00+9sw33685 0.0 101822
05:00+8sw33695 0.0 101823
08:00+10sw35625 0.0 1016146
11:00+15sw34445 0.0 1014536
14:00+17sw44335 0.0 10121136
17:00+17wsw333218 0.0 10101317
20:00+13sw224962 0.0 100911